TimeCDT,TemperatureF,Dew PointF,Humidity,Sea Level PressureIn,VisibilityMPH,Wind Direction,Wind SpeedMPH,Gust SpeedMPH,PrecipitationIn,Events,Conditions,WindDirDegrees,DateUTC
12:52 AM,78.1,60.1,54,29.85,10.0,South,10.4,-,N/A,,Clear,190,2013-07-07 05:52:00
1:52 AM,78.1,61.0,56,29.85,10.0,South,8.1,-,N/A,,Clear,190,2013-07-07 06:52:00
2:52 AM,77.0,62.1,60,29.86,10.0,South,8.1,-,N/A,,Partly Cloudy,190,2013-07-07 07:52:00
3:52 AM,77.0,62.1,60,29.86,10.0,South,10.4,-,N/A,,Scattered Clouds,190,2013-07-07 08:52:00
4:52 AM,75.0,63.0,66,29.88,10.0,South,5.8,-,N/A,,Partly Cloudy,190,2013-07-07 09:52:00
5:52 AM,75.9,62.1,62,29.89,10.0,South,6.9,-,N/A,,Clear,180,2013-07-07 10:52:00
6:52 AM,75.9,62.1,62,29.88,10.0,South,9.2,-,N/A,,Clear,190,2013-07-07 11:52:00
7:52 AM,78.1,63.0,60,29.89,10.0,SSW,11.5,-,N/A,,Clear,200,2013-07-07 12:52:00
8:52 AM,79.0,63.0,58,29.89,10.0,SSW,15.0,20.7,N/A,,Clear,200,2013-07-07 13:52:00
9:52 AM,82.9,64.0,53,29.89,10.0,SSW,13.8,23.0,N/A,,Clear,200,2013-07-07 14:52:00
10:52 AM,84.9,63.0,48,29.87,10.0,SSW,16.1,23.0,N/A,,Clear,200,2013-07-07 15:52:00
11:52 AM,91.0,63.0,39,29.86,10.0,SSW,18.4,26.5,N/A,,Clear,200,2013-07-07 16:52:00
12:52 PM,93.9,63.0,36,29.86,10.0,SSW,17.3,27.6,N/A,,Clear,200,2013-07-07 17:52:00
1:52 PM,95.0,64.0,36,29.85,10.0,SSW,12.7,26.5,N/A,,Clear,200,2013-07-07 18:52:00
2:52 PM,93.9,64.9,38,29.85,10.0,South,12.7,20.7,N/A,,Clear,190,2013-07-07 19:52:00
3:52 PM,96.1,64.0,35,29.83,10.0,South,10.4,-,N/A,,Partly Cloudy,190,2013-07-07 20:52:00
4:52 PM,99.0,64.0,32,29.83,10.0,SSW,17.3,25.3,N/A,,Clear,200,2013-07-07 21:52:00
5:52 PM,96.1,64.0,35,29.83,10.0,South,12.7,19.6,N/A,,Clear,180,2013-07-07 22:52:00
6:52 PM,93.9,64.0,37,29.82,10.0,South,6.9,-,N/A,,Clear,180,2013-07-07 23:52:00
7:52 PM,90.0,64.0,42,29.83,10.0,South,6.9,-,N/A,,Clear,180,2013-07-08 00:52:00
8:52 PM,89.1,63.0,42,29.83,10.0,South,6.9,-,N/A,,Clear,180,2013-07-08 01:52:00
9:52 PM,90.0,62.1,39,29.85,10.0,South,12.7,19.6,N/A,,Partly Cloudy,190,2013-07-08 02:52:00
10:52 PM,88.0,61.0,40,29.88,10.0,South,10.4,-,N/A,,Partly Cloudy,190,2013-07-08 03:52:00
11:52 PM,86.0,63.0,46,29.91,10.0,South,8.1,-,N/A,,Overcast,190,2013-07-08 04:52:00
11:59 PM,86.0,64.4,48,29.95,10.0,South,8.1,-,N/A,Thunderstorm,Thunderstorm,190,2013-07-08 04:59:00